| time (UTC) | temp F | wind direction | speed MPH | gust MPH | rain 1hr in | rain 24hr in | rain mn in | humidity % | barometer mb |
| 20260505021621 | 72 | 163 | 2.0 | 3.0 | 0.00 | 0.00 | 0.00 | 20 | 1012.8 |
| 20260505020134 | 72 | 162 | 1.0 | 3.0 | 0.00 | 0.00 | 0.00 | 20 | 1012.5 |
| 20260505014625 | 73 | 203 | 2.0 | 5.0 | 0.00 | 0.00 | 0.00 | 19 | 1012.6 |
| 20260505013139 | 74 | 219 | 2.0 | 7.0 | 0.00 | 0.00 | 0.00 | 17 | 1012.1 |
| 20260505011652 | 75 | 227 | 5.0 | 8.0 | 0.00 | 0.00 | 0.00 | 16 | 1012.3 |
| 20260505010126 | 76 | 235 | 5.0 | 10.0 | 0.00 | 0.00 | 0.00 | 15 | 1012.6 |
| 20260505004638 | 76 | 201 | 3.0 | 8.0 | 0.00 | 0.00 | 0.00 | 14 | 1012.6 |
| 20260505003152 | 77 | 225 | 4.0 | 7.0 | 0.00 | 0.00 | 0.00 | 13 | 1012.7 |
| 20260505001625 | 77 | 275 | 6.0 | 12.0 | 0.00 | 0.00 | 0.00 | 12 | 1012.8 |
| 20260505000138 | 78 | 235 | 8.0 | 16.0 | 0.00 | 0.00 | 0.00 | 12 | 1012.8 |
| 20260504234632 | 78 | 263 | 8.0 | 17.0 | 0.00 | 0.00 | 0.00 | 12 | 1012.7 |
| 20260504233123 | 79 | 248 | 1.0 | 5.0 | 0.00 | 0.00 | 0.00 | 16 | 1012.7 |
| 20260504231634 | 78 | 109 | 1.0 | 8.0 | 0.00 | 0.00 | 0.00 | 16 | 1012.6 |
| 20260504230131 | 78 | 97 | 4.0 | 8.0 | 0.00 | 0.00 | 0.00 | 17 | 1012.7 |
| 20260504224623 | 78 | 154 | 3.0 | 7.0 | 0.00 | 0.00 | 0.00 | 17 | 1012.9 |
| 20260504223138 | 79 | 190 | 2.0 | 9.0 | 0.00 | 0.00 | 0.00 | 17 | 1013.1 |
| 20260504221630 | 79 | 132 | 4.0 | 6.0 | 0.00 | 0.00 | 0.00 | 17 | 1013.4 |
| 20260504220125 | 78 | 170 | 6.0 | 10.0 | 0.00 | 0.00 | 0.00 | 18 | 1014.0 |
| 20260504214658 | 77 | 90 | 4.0 | 8.0 | 0.00 | 0.00 | 0.00 | 19 | 1014.3 |
| 20260504213129 | 76 | 234 | 5.0 | 9.0 | 0.00 | 0.00 | 0.00 | 19 | 1014.5 |
| 20260504211645 | 76 | 184 | 3.0 | 6.0 | 0.00 | 0.00 | 0.00 | 18 | 1015.0 |
| 20260504210157 | 75 | 229 | 4.0 | 8.0 | 0.00 | 0.00 | 0.00 | 19 | 1015.2 |
| 20260504204632 | 75 | 251 | 4.0 | 9.0 | 0.00 | 0.00 | 0.00 | 19 | 1015.5 |
| 20260504203123 | 75 | 213 | 7.0 | 10.0 | 0.00 | 0.00 | 0.00 | 21 | 1015.5 |
| 20260504201635 | 74 | 262 | 6.0 | 9.0 | 0.00 | 0.00 | 0.00 | 21 | 1015.8 |
| 20260504200131 | 74 | 240 | 2.0 | 8.0 | 0.00 | 0.00 | 0.00 | 20 | 1015.9 |
| 20260504194644 | 75 | 296 | 0.0 | 4.0 | 0.00 | 0.00 | 0.00 | 20 | 1016.0 |
| 20260504193139 | 75 | 40 | 0.0 | 6.0 | 0.00 | 0.00 | 0.00 | 21 | 1015.9 |
| 20260504191633 | 74 | 266 | 2.0 | 6.0 | 0.00 | 0.00 | 0.00 | 22 | 1016.1 |
| 20260504190127 | 74 | 9 | 1.0 | 8.0 | 0.00 | 0.00 | 0.00 | 22 | 1016.1 |
| 20260504184636 | 73 | 218 | 4.0 | 8.0 | 0.00 | 0.00 | 0.00 | 22 | 1016.5 |
| 20260504183126 | 72 | 86 | 1.0 | 7.0 | 0.00 | 0.00 | 0.00 | 24 | 1016.7 |
| 20260504181621 | 72 | 67 | 2.0 | 5.0 | 0.00 | 0.00 | 0.00 | 24 | 1016.9 |
| 20260504180132 | 73 | 277 | 1.0 | 5.0 | 0.00 | 0.00 | 0.00 | 24 | 1017.1 |
| 20260504174648 | 73 | 266 | 2.0 | 7.0 | 0.00 | 0.00 | 0.00 | 25 | 1017.0 |
| 20260504173141 | 72 | 303 | 1.0 | 8.0 | 0.00 | 0.00 | 0.00 | 26 | 1017.1 |
| 20260504171652 | 72 | 266 | 3.0 | 7.0 | 0.00 | 0.00 | 0.00 | 27 | 1017.1 |
| 20260504170127 | 71 | 283 | 6.0 | 8.0 | 0.00 | 0.00 | 0.00 | 27 | 1017.0 |
| 20260504160139 | 68 | 109 | 2.0 | 3.0 | 0.00 | 0.00 | 0.00 | 33 | 1017.5 |
| 20260504150123 | 67 | 256 | 1.0 | 4.0 | 0.00 | 0.00 | 0.00 | 40 | 1017.2 |
| 20260504140156 | 58 | 220 | 1.0 | 2.0 | 0.00 | 0.00 | 0.00 | 65 | 1017.4 |
| 20260504130129 | 56 | 171 | 0.0 | 0.0 | 0.00 | 0.00 | 0.00 | 62 | 1017.0 |
| 20260504120136 | 53 | 28 | 0.0 | 0.0 | 0.00 | 0.00 | 0.00 | 66 | 1015.8 |
| 20260504110129 | 51 | 86 | 1.0 | 2.0 | 0.00 | 0.00 | 0.00 | 74 | 1015.7 |
| 20260504100139 | 52 | 118 | 0.0 | 4.0 | 0.00 | 0.00 | 0.00 | 71 | 1015.5 |
| 20260504090126 | 53 | 40 | 0.0 | 0.0 | 0.00 | 0.00 | 0.00 | 69 | 1015.3 |
| 20260504080124 | 55 | 324 | 1.0 | 3.0 | 0.00 | 0.00 | 0.00 | 69 | 1015.9 |
| 20260504070122 | 59 | 231 | 0.0 | 4.0 | 0.00 | 0.00 | 0.00 | 55 | 1016.3 |
| 20260504060122 | 62 | 71 | 1.0 | 2.0 | 0.00 | 0.00 | 0.00 | 49 | 1016.4 |
| 20260504050128 | 64 | 100 | 2.0 | 4.0 | 0.00 | 0.00 | 0.00 | 46 | 1016.8 |
| 20260504044625 | 63 | 106 | 2.0 | 2.0 | 0.00 | 0.00 | 0.00 | 46 | 1016.9 |
| 20260504043201 | 63 | 106 | 1.0 | 2.0 | 0.00 | 0.00 | 0.00 | 46 | 1017.0 |
| 20260504041655 | 62 | 102 | 1.0 | 3.0 | 0.00 | 0.00 | 0.00 | 48 | 1017.0 |
| 20260504040134 | 61 | 84 | 0.0 | 3.0 | 0.00 | 0.00 | 0.00 | 49 | 1016.9 |
| 20260504034626 | 63 | 129 | 1.0 | 2.0 | 0.00 | 0.00 | 0.00 | 45 | 1016.9 |
| 20260504033125 | 64 | 136 | 2.0 | 4.0 | 0.00 | 0.00 | 0.00 | 43 | 1016.7 |
| 20260504031640 | 64 | 138 | 1.0 | 3.0 | 0.00 | 0.00 | 0.00 | 44 | 1016.7 |
| 20260504030155 | 64 | 121 | 2.0 | 3.0 | 0.00 | 0.00 | 0.00 | 44 | 1016.9 |
| 20260504024631 | 65 | 132 | 0.0 | 2.0 | 0.00 | 0.00 | 0.00 | 43 | 1017.1 |
| 20260504023124 | 66 | 130 | 0.0 | 0.0 | 0.00 | 0.00 | 0.00 | 42 | 1016.8 |